Погода в Мордовской Козловке

Россия / Республика Мордовия     54°27′44″N   43°18′40″E
темп.,
°C
ветер,
м/с
пор.,
м/с
влажн.,
%
обл.,
%
осадки,
мм/ч
давл.,
гПа
погр.,
м
27 сентября, пн
пн2700:00+9ссв51092100 0.4 1008471
03:00+8ссв61293100 0.5 1010577
06:00+8с61288100 0.5 1012585
09:00+8с51086100 0.5 1013488
12:00+11с7977100 0.1 1014938
15:00+10с5985100 0.2 10151026
18:00+8ссв5891100 0.9 1017959
21:00+6всв5893100 1.9 1019941
28 сентября, вт
вт2800:00+5св5894100 0.2 1021833
03:00+5св5996100 0.4 1023766
06:00+4св5984100 0.0 1025915
09:00+4св5981100 0.0 1027945
12:00+8всв68575 0.0 10281119
15:00+9св57465 0.0 10281347
18:00+6ссв376318 0.0 1030143
21:00+4ссв37730 0.0 1032141
29 сентября, ср
ср2900:00+3ссв33785 0.0 103254
03:00+2ссв348286 0.0 103364
06:00+1с358362 0.0 103397
09:00+6ссв356568 0.0 1034382
12:00+9св344823 0.0 10331162
15:00+10ссв344495 0.0 10331434
18:00+7с226299 0.0 103329
21:00+4ссв227012 0.0 103427
30 сентября, чт
чт3000:00+3ссв227450 0.0 103411
03:00+3с22775 0.0 103513
06:00+2с22815 0.0 103512
09:00+7ссв22635 0.0 1036263
12:00+11ссв11515 0.0 1035816
15:00+11ссз124918 0.0 10341229
18:00+8зсз2265100 0.0 103414
21:00+7зсз227187 0.0 103530
1 октября, пт
пт100:00+6зсз227936 0.0 103524
03:00+6з3677100 0.0 1035157
06:00+7зсз3782100 0.0 1035210
09:00+9сз3681100 0.0 1035265
12:00+12сз4570100 0.0 1035582
15:00+13сз356899 0.0 1034772
18:00+11сз367999 0.0 1034156
21:00+10сз258298 0.0 1034124